Darstellungsparameter: Aktuell verwendete Einstellungen:
Skalierung der Graphiken ... ?
xyx+y,   Skalierungsfaktor:      Skalierung: Modus: x, Faktor: 1
Darstellungszeitraum ... ?
Vom - - bis: - -   Zeitraum: 07.05.2021 - 07.05.2021
Min/Max/Avg-Anzeige ... ?
Zeige MMA aktuell
Zeige MMA Monat
Zeige MMA alles
Zeige --A aktuell
Zeige --A Monat
Zeige --A alles
Keine MMA-Anzeige
MMA:
Average (ber die Originaldaten)
MMA-Basis: 23.02.2003 - 08.05.2021
Quicknavigation für Darstellung... ?
Tage:      1T, 2T, 3T, 5T -1T -2T -3T -5T +1T +2T +3T +5T
Wochen: 1W, 2W, 3W -1W -2W -3W +1W +2W +3W
Monate: 1M, 3M, 6M -1M -3M -6M +1M +3M +6M
Jahre:    1J, 3J, 5J, 10J -1J -3J -5J -10J +1J +3J +5J +10J
Nutze für die Darstellung ... ?
Originaldaten oder Mittelwerte auf ...
Stundenbasis Tagesbasis Wochenbasis
Monatsbasis Jahresbasis      Datenbasis: Original-Daten
Darstellen als:
Statistik (Auto) Statistik J:M      Darstellung:
Zur Graphik,    zurück zur Übersicht aller Sensoren.
 
Tabellarische Datenbersicht: ?
 
Sensor: Nr:Datum:Temp:Abs-Feuchte:Windchill:Wind:
Aussen-T/F 1 07-05-2021 02:00:00 6.5 C 7.12 g/m*3 6.5 C 0 km/h
2 07-05-2021 02:05:00 6.5 C 7.12 g/m*3 6.5 C 4.8 km/h
3 07-05-2021 02:10:00 6.4 C 7.08 g/m*3 6.4 C 4.8 km/h
4 07-05-2021 02:15:00 6.4 C 7.08 g/m*3 6.4 C 1.6 km/h
5 07-05-2021 02:20:00 6.4 C 7.08 g/m*3 6.4 C 1.6 km/h
6 07-05-2021 02:25:00 6.4 C 7.08 g/m*3 6.4 C 1.6 km/h
7 07-05-2021 02:30:00 6.4 C 7.08 g/m*3 6.4 C 3.2 km/h
8 07-05-2021 02:35:00 6.4 C 7.08 g/m*3 6.4 C 1.6 km/h
9 07-05-2021 02:40:00 6.4 C 7.08 g/m*3 6.4 C 3.2 km/h
10 07-05-2021 02:45:00 6.4 C 7.08 g/m*3 3.55 C 14.5 km/h
11 07-05-2021 02:50:00 6.3 C 7.03 g/m*3 4.64 C 8.1 km/h
12 07-05-2021 02:55:00 6.1 C 6.87 g/m*3 4.4 C 8.1 km/h
13 07-05-2021 03:00:00 6.1 C 6.87 g/m*3 4.04 C 9.7 km/h
14 07-05-2021 03:05:00 6 C 6.82 g/m*3 4.28 C 8.1 km/h
15 07-05-2021 03:10:00 5.9 C 6.78 g/m*3 4.17 C 8.1 km/h
16 07-05-2021 03:15:00 5.9 C 6.78 g/m*3 5.9 C 4.8 km/h
17 07-05-2021 03:20:00 5.9 C 6.78 g/m*3 5.9 C 1.6 km/h
18 07-05-2021 03:25:00 5.9 C 6.78 g/m*3 5.9 C 0 km/h
19 07-05-2021 03:30:00 5.8 C 6.73 g/m*3 5.8 C 1.6 km/h
20 07-05-2021 03:35:00 5.8 C 6.73 g/m*3 5.8 C 1.6 km/h
21 07-05-2021 03:40:00 5.7 C 6.69 g/m*3 5.7 C 3.2 km/h
22 07-05-2021 03:45:00 5.7 C 6.69 g/m*3 5.7 C 4.8 km/h
23 07-05-2021 03:50:00 5.5 C 6.6 g/m*3 5.5 C 4.8 km/h
24 07-05-2021 03:55:00 5.4 C 6.56 g/m*3 5.4 C 1.6 km/h
25 07-05-2021 04:00:00 5.3 C 6.52 g/m*3 5.3 C 3.2 km/h
Sensor: Nr:Datum:Temp:Abs-Feuchte:Windchill:Wind:
Aussen-T/F 26 07-05-2021 04:05:00 5.1 C 6.43 g/m*3 5.1 C 3.2 km/h
27 07-05-2021 04:10:00 4.9 C 6.35 g/m*3 4.9 C 1.6 km/h
28 07-05-2021 04:15:00 4.7 C 6.26 g/m*3 4.7 C 4.8 km/h
29 07-05-2021 04:20:00 4.6 C 6.22 g/m*3 4.6 C 3.2 km/h
30 07-05-2021 04:25:00 4.5 C 6.18 g/m*3 4.5 C 3.2 km/h
31 07-05-2021 04:30:00 4.4 C 6.14 g/m*3 4.4 C 0 km/h
32 07-05-2021 04:35:00 4.4 C 6.14 g/m*3 4.4 C 0 km/h
33 07-05-2021 04:40:00 4.4 C 6.14 g/m*3 4.4 C 0 km/h
34 07-05-2021 04:45:00 4.4 C 6.14 g/m*3 4.4 C 0 km/h
35 07-05-2021 04:50:00 4.4 C 6.2 g/m*3 4.4 C 0 km/h
36 07-05-2021 04:55:00 4.4 C 6.2 g/m*3 4.4 C 1.6 km/h
37 07-05-2021 05:00:00 4.5 C 6.24 g/m*3 4.5 C 1.6 km/h
38 07-05-2021 05:05:00 4.6 C 6.29 g/m*3 4.6 C 4.8 km/h
39 07-05-2021 05:10:00 4.7 C 6.33 g/m*3 4.7 C 4.8 km/h
40 07-05-2021 05:15:00 4.8 C 6.37 g/m*3 4.8 C 4.8 km/h
41 07-05-2021 05:20:00 4.8 C 6.37 g/m*3 4.8 C 0 km/h
42 07-05-2021 05:25:00 4.9 C 6.48 g/m*3 4.9 C 3.2 km/h
43 07-05-2021 05:30:00 4.9 C 6.41 g/m*3 4.9 C 3.2 km/h
44 07-05-2021 05:35:00 4.9 C 6.41 g/m*3 4.9 C 0 km/h
45 07-05-2021 05:40:00 4.8 C 6.37 g/m*3 4.8 C 0 km/h
46 07-05-2021 05:45:00 4.7 C 6.33 g/m*3 4.7 C 3.2 km/h
47 07-05-2021 05:50:00 4.6 C 6.29 g/m*3 4.6 C 1.6 km/h
48 07-05-2021 05:55:00 4.4 C 6.2 g/m*3 4.4 C 3.2 km/h
49 07-05-2021 06:00:00 4.3 C 6.16 g/m*3 4.3 C 1.6 km/h
50 07-05-2021 06:05:00 4.2 C 6.12 g/m*3 4.2 C 4.8 km/h
Sensor: Nr:Datum:Temp:Abs-Feuchte:Windchill:Wind:
Aussen-T/F 51 07-05-2021 06:10:00 4.1 C 6.08 g/m*3 4.1 C 3.2 km/h
52 07-05-2021 06:15:00 3.9 C 6 g/m*3 3.9 C 3.2 km/h
53 07-05-2021 06:20:00 3.8 C 5.96 g/m*3 3.8 C 3.2 km/h
54 07-05-2021 06:25:00 3.8 C 5.96 g/m*3 3.8 C 3.2 km/h
55 07-05-2021 06:30:00 3.7 C 5.92 g/m*3 3.7 C 3.2 km/h
56 07-05-2021 06:35:00 3.7 C 5.92 g/m*3 2.09 C 6.4 km/h
57 07-05-2021 06:40:00 3.6 C 5.88 g/m*3 3.6 C 3.2 km/h
58 07-05-2021 06:45:00 3.6 C 5.88 g/m*3 3.6 C 0 km/h
59 07-05-2021 06:50:00 3.6 C 5.88 g/m*3 3.6 C 1.6 km/h
60 07-05-2021 06:55:00 3.6 C 5.88 g/m*3 3.6 C 0 km/h
61 07-05-2021 07:00:00 3.5 C 5.84 g/m*3 3.5 C 0 km/h
62 07-05-2021 07:05:00 3.5 C 5.84 g/m*3 3.5 C 0 km/h
63 07-05-2021 07:10:00 3.5 C 5.84 g/m*3 3.5 C 1.6 km/h
64 07-05-2021 07:15:00 3.6 C 5.88 g/m*3 3.6 C 0 km/h
65 07-05-2021 07:20:00 3.6 C 5.88 g/m*3 3.6 C 1.6 km/h
66 07-05-2021 07:25:00 3.6 C 5.88 g/m*3 3.6 C 3.2 km/h
67 07-05-2021 07:30:00 3.6 C 5.88 g/m*3 3.6 C 1.6 km/h
68 07-05-2021 07:35:00 3.7 C 5.92 g/m*3 3.7 C 1.6 km/h
69 07-05-2021 07:40:00 3.8 C 6.02 g/m*3 2.21 C 6.4 km/h
70 07-05-2021 07:45:00 3.9 C 6.06 g/m*3 2.32 C 6.4 km/h
71 07-05-2021 07:50:00 4.1 C 6.14 g/m*3 4.1 C 3.2 km/h
72 07-05-2021 07:55:00 4.1 C 6.14 g/m*3 4.1 C 4.8 km/h
73 07-05-2021 08:00:00 4.2 C 6.19 g/m*3 4.2 C 4.8 km/h
74 07-05-2021 08:05:00 4.2 C 6.19 g/m*3 4.2 C 4.8 km/h
75 07-05-2021 08:10:00 4.3 C 6.23 g/m*3 2.78 C 6.4 km/h
Sensor: Nr:Datum:Temp:Abs-Feuchte:Windchill:Wind:
Aussen-T/F 76 07-05-2021 08:15:00 4.4 C 6.27 g/m*3 2.9 C 6.4 km/h
77 07-05-2021 08:20:00 4.4 C 6.2 g/m*3 4.4 C 0 km/h
78 07-05-2021 08:25:00 4.5 C 6.31 g/m*3 4.5 C 4.8 km/h
79 07-05-2021 08:30:00 4.6 C 6.35 g/m*3 2.64 C 8.1 km/h
80 07-05-2021 08:35:00 4.7 C 6.39 g/m*3 3.25 C 6.4 km/h
81 07-05-2021 08:40:00 4.8 C 6.44 g/m*3 3.36 C 6.4 km/h
82 07-05-2021 08:45:00 4.9 C 6.48 g/m*3 3.48 C 6.4 km/h
83 07-05-2021 08:50:00 5.1 C 6.5 g/m*3 3.71 C 6.4 km/h
84 07-05-2021 08:55:00 5.2 C 6.54 g/m*3 2.96 C 9.7 km/h
85 07-05-2021 09:00:00 5.2 C 6.54 g/m*3 2.63 C 11.3 km/h
86 07-05-2021 09:05:00 5.3 C 6.52 g/m*3 3.46 C 8.1 km/h
87 07-05-2021 09:10:00 5.4 C 6.49 g/m*3 4.06 C 6.4 km/h
88 07-05-2021 09:15:00 5.7 C 6.62 g/m*3 3.23 C 11.3 km/h
89 07-05-2021 09:20:00 5.9 C 6.63 g/m*3 3.8 C 9.7 km/h
90 07-05-2021 09:25:00 6.2 C 6.69 g/m*3 3.56 C 12.9 km/h
91 07-05-2021 09:30:00 6.4 C 6.71 g/m*3 4.39 C 9.7 km/h
92 07-05-2021 09:35:00 6.6 C 6.79 g/m*3 5.44 C 6.4 km/h
93 07-05-2021 09:40:00 6.8 C 6.81 g/m*3 6.8 C 4.8 km/h
94 07-05-2021 09:45:00 7.1 C 6.86 g/m*3 4.65 C 12.9 km/h
95 07-05-2021 09:50:00 7.2 C 6.99 g/m*3 7.2 C 4.8 km/h
96 07-05-2021 09:55:00 7.4 C 6.92 g/m*3 5.93 C 8.1 km/h
97 07-05-2021 10:00:00 7.5 C 6.88 g/m*3 5.41 C 11.3 km/h
98 07-05-2021 10:05:00 7.6 C 6.77 g/m*3 5.53 C 11.3 km/h
99 07-05-2021 10:10:00 7.8 C 6.86 g/m*3 5.77 C 11.3 km/h
100 07-05-2021 10:15:00 8 C 6.86 g/m*3 5.75 C 12.9 km/h
Sensor: Nr:Datum:Temp:Abs-Feuchte:Windchill:Wind:
Aussen-T/F 101 07-05-2021 10:20:00 8.2 C 6.87 g/m*3 5.99 C 12.9 km/h
102 07-05-2021 10:25:00 8.3 C 6.74 g/m*3 6.37 C 11.3 km/h
103 07-05-2021 10:30:00 8.3 C 6.74 g/m*3 6.12 C 12.9 km/h
104 07-05-2021 10:35:00 8.1 C 6.66 g/m*3 4.89 C 20.9 km/h
105 07-05-2021 10:40:00 7.4 C 6.44 g/m*3 4.78 C 14.5 km/h
106 07-05-2021 10:45:00 6.8 C 6.42 g/m*3 4.29 C 12.9 km/h
107 07-05-2021 10:50:00 6.4 C 6.41 g/m*3 5.21 C 6.4 km/h
108 07-05-2021 10:55:00 6.3 C 6.51 g/m*3 4.27 C 9.7 km/h
109 07-05-2021 11:00:00 6.3 C 6.51 g/m*3 4.27 C 9.7 km/h
110 07-05-2021 11:05:00 6.4 C 6.63 g/m*3 4.39 C 9.7 km/h
111 07-05-2021 11:10:00 6.7 C 6.84 g/m*3 4.44 C 11.3 km/h
112 07-05-2021 11:15:00 6.9 C 6.7 g/m*3 3.94 C 16.1 km/h
113 07-05-2021 11:20:00 6.9 C 6.54 g/m*3 3.94 C 16.1 km/h
114 07-05-2021 11:25:00 6.9 C 6.47 g/m*3 4.41 C 12.9 km/h
115 07-05-2021 11:30:00 7 C 6.43 g/m*3 3.67 C 19.3 km/h
116 07-05-2021 11:35:00 7.1 C 6.47 g/m*3 5.23 C 9.7 km/h
117 07-05-2021 11:40:00 7.2 C 6.52 g/m*3 4.77 C 12.9 km/h
118 07-05-2021 11:45:00 7.2 C 6.44 g/m*3 5.04 C 11.3 km/h
119 07-05-2021 11:50:00 7.2 C 6.36 g/m*3 4.53 C 14.5 km/h
120 07-05-2021 11:55:00 7.4 C 6.44 g/m*3 4.78 C 14.5 km/h
121 07-05-2021 12:00:00 7.5 C 6.32 g/m*3 4.3 C 19.3 km/h
122 07-05-2021 12:05:00 7.4 C 6.28 g/m*3 5.28 C 11.3 km/h
123 07-05-2021 12:10:00 7.4 C 6.28 g/m*3 5.58 C 9.7 km/h
124 07-05-2021 12:15:00 7.4 C 6.36 g/m*3 5.28 C 11.3 km/h
125 07-05-2021 12:20:00 7.4 C 6.28 g/m*3 5.28 C 11.3 km/h
Sensor: Nr:Datum:Temp:Abs-Feuchte:Windchill:Wind:
Aussen-T/F 126 07-05-2021 12:25:00 7.4 C 6.44 g/m*3 3.68 C 24.1 km/h
127 07-05-2021 12:30:00 7.4 C 6.36 g/m*3 3.68 C 24.1 km/h
128 07-05-2021 12:35:00 7.4 C 6.36 g/m*3 5.02 C 12.9 km/h
129 07-05-2021 12:40:00 7.4 C 6.44 g/m*3 4.78 C 14.5 km/h
130 07-05-2021 12:45:00 7.3 C 6.24 g/m*3 4.05 C 19.3 km/h
131 07-05-2021 12:50:00 7.3 C 6.4 g/m*3 3.13 C 29 km/h
132 07-05-2021 12:55:00 7.2 C 6.36 g/m*3 3 C 29 km/h
133 07-05-2021 13:00:00 7.3 C 6.32 g/m*3 5.47 C 9.7 km/h
134 07-05-2021 13:05:00 7.3 C 6.32 g/m*3 6.25 C 6.4 km/h
135 07-05-2021 13:10:00 7.3 C 6.24 g/m*3 3.87 C 20.9 km/h
136 07-05-2021 13:15:00 7.2 C 6.12 g/m*3 4.31 C 16.1 km/h
137 07-05-2021 13:20:00 7.2 C 6.2 g/m*3 5.04 C 11.3 km/h
138 07-05-2021 13:25:00 7.2 C 6.2 g/m*3 4.77 C 12.9 km/h
139 07-05-2021 13:30:00 7.2 C 6.28 g/m*3 4.77 C 12.9 km/h
140 07-05-2021 13:35:00 7.3 C 6.32 g/m*3 5.16 C 11.3 km/h
141 07-05-2021 13:40:00 7.5 C 6.24 g/m*3 4.9 C 14.5 km/h
142 07-05-2021 13:45:00 7.6 C 6.2 g/m*3 4.81 C 16.1 km/h
143 07-05-2021 13:50:00 7.7 C 6.08 g/m*3 5.38 C 12.9 km/h
144 07-05-2021 13:55:00 7.7 C 6 g/m*3 5.15 C 14.5 km/h
145 07-05-2021 14:00:00 7.8 C 6.04 g/m*3 6.06 C 9.7 km/h
146 07-05-2021 14:05:00 8.1 C 6.16 g/m*3 5.23 C 17.7 km/h
147 07-05-2021 14:10:00 8.4 C 6.11 g/m*3 6.24 C 12.9 km/h
148 07-05-2021 14:15:00 8.5 C 6.06 g/m*3 6.36 C 12.9 km/h
149 07-05-2021 14:20:00 8.6 C 6.1 g/m*3 6.25 C 14.5 km/h
150 07-05-2021 14:25:00 8.7 C 5.97 g/m*3 6.17 C 16.1 km/h
Sensor: Nr:Datum:Temp:Abs-Feuchte:Windchill:Wind:
Aussen-T/F 151 07-05-2021 14:30:00 8.9 C 5.96 g/m*3 6.85 C 12.9 km/h
152 07-05-2021 14:35:00 9.2 C 5.8 g/m*3 6.79 C 16.1 km/h
153 07-05-2021 14:40:00 9.5 C 6.01 g/m*3 7.36 C 14.5 km/h
154 07-05-2021 14:45:00 9.7 C 5.99 g/m*3 7.23 C 17.7 km/h
155 07-05-2021 14:50:00 9.7 C 5.9 g/m*3 7.82 C 12.9 km/h
156 07-05-2021 14:55:00 9.5 C 5.92 g/m*3 7.36 C 14.5 km/h
157 07-05-2021 15:00:00 9.4 C 6.06 g/m*3 7.7 C 11.3 km/h
158 07-05-2021 15:05:00 9.5 C 6.1 g/m*3 7.58 C 12.9 km/h
159 07-05-2021 15:10:00 9.5 C 6.01 g/m*3 8.09 C 9.7 km/h
160 07-05-2021 15:15:00 9.5 C 6.01 g/m*3 7.58 C 12.9 km/h
161 07-05-2021 15:20:00 9.6 C 5.59 g/m*3 7.7 C 12.9 km/h
162 07-05-2021 15:25:00 9.7 C 5.81 g/m*3 7.23 C 17.7 km/h
163 07-05-2021 15:30:00 9.8 C 5.85 g/m*3 7.04 C 20.9 km/h
164 07-05-2021 15:35:00 9.9 C 5.79 g/m*3 7.85 C 14.5 km/h
165 07-05-2021 15:40:00 10.1 C 5.67 g/m*3 8.54 C 11.3 km/h
166 07-05-2021 15:45:00 10.2 C 5.71 g/m*3 9.22 C 8.1 km/h
167 07-05-2021 15:50:00 10.6 C 6.05 g/m*3 8.36 C 17.7 km/h
168 07-05-2021 15:55:00 11.1 C 5.84 g/m*3 11.1 C 12.9 km/h
169 07-05-2021 16:00:00 11.6 C 5.61 g/m*3 11.6 C 12.9 km/h
170 07-05-2021 16:05:00 11.9 C 5.61 g/m*3 11.9 C 14.5 km/h
171 07-05-2021 16:10:00 12.2 C 5.72 g/m*3 12.2 C 17.7 km/h
172 07-05-2021 16:15:00 12.4 C 5.57 g/m*3 12.4 C 14.5 km/h
173 07-05-2021 16:20:00 12.6 C 5.31 g/m*3 12.6 C 12.9 km/h
174 07-05-2021 16:25:00 12.9 C 5.75 g/m*3 12.9 C 16.1 km/h
175 07-05-2021 16:30:00 13.1 C 5.36 g/m*3 13.1 C 14.5 km/h
Sensor: Nr:Datum:Temp:Abs-Feuchte:Windchill:Wind:
Aussen-T/F 176 07-05-2021 16:35:00 13.2 C 5.4 g/m*3 13.2 C 12.9 km/h
177 07-05-2021 16:40:00 13.3 C 5.55 g/m*3 13.3 C 11.3 km/h
178 07-05-2021 16:45:00 13.5 C 5.26 g/m*3 13.5 C 9.7 km/h
179 07-05-2021 16:50:00 13.3 C 5.55 g/m*3 13.3 C 11.3 km/h
180 07-05-2021 16:55:00 13.3 C 5.55 g/m*3 13.3 C 9.7 km/h
181 07-05-2021 17:00:00 13.2 C 5.17 g/m*3 13.2 C 16.1 km/h
182 07-05-2021 17:05:00 13.1 C 5.48 g/m*3 13.1 C 11.3 km/h
183 07-05-2021 17:10:00 13.3 C 5.43 g/m*3 13.3 C 8.1 km/h
184 07-05-2021 17:15:00 13.5 C 5.61 g/m*3 13.5 C 11.3 km/h
185 07-05-2021 17:20:00 13.5 C 5.5 g/m*3 13.5 C 3.2 km/h
186 07-05-2021 17:25:00 13.4 C 5.46 g/m*3 13.4 C 12.9 km/h
187 07-05-2021 17:30:00 13.7 C 5.92 g/m*3 13.7 C 9.7 km/h
188 07-05-2021 17:35:00 13.9 C 5.75 g/m*3 13.9 C 8.1 km/h
189 07-05-2021 17:40:00 13.6 C 5.18 g/m*3 13.6 C 12.9 km/h
190 07-05-2021 17:45:00 13.3 C 5.43 g/m*3 13.3 C 11.3 km/h
191 07-05-2021 17:50:00 13.3 C 5.43 g/m*3 13.3 C 11.3 km/h
192 07-05-2021 17:55:00 13.2 C 5.4 g/m*3 13.2 C 12.9 km/h
193 07-05-2021 18:00:00 13.1 C 5.36 g/m*3 13.1 C 12.9 km/h
194 07-05-2021 18:05:00 13.2 C 5.74 g/m*3 13.2 C 11.3 km/h
195 07-05-2021 18:10:00 13.3 C 5.55 g/m*3 13.3 C 8.1 km/h
196 07-05-2021 18:15:00 13.3 C 5.43 g/m*3 13.3 C 9.7 km/h
197 07-05-2021 18:20:00 13.4 C 5.7 g/m*3 13.4 C 12.9 km/h
198 07-05-2021 18:25:00 13.5 C 5.5 g/m*3 13.5 C 8.1 km/h
199 07-05-2021 18:30:00 13.3 C 5.43 g/m*3 13.3 C 6.4 km/h
200 07-05-2021 18:35:00 13.2 C 5.74 g/m*3 13.2 C 3.2 km/h
Sensor: Nr:Datum:Temp:Abs-Feuchte:Windchill:Wind:
Aussen-T/F 201 07-05-2021 18:40:00 13.1 C 5.48 g/m*3 13.1 C 9.7 km/h
202 07-05-2021 18:45:00 12.9 C 5.41 g/m*3 12.9 C 6.4 km/h
203 07-05-2021 18:50:00 12.9 C 5.41 g/m*3 12.9 C 3.2 km/h
204 07-05-2021 18:55:00 12.9 C 5.41 g/m*3 12.9 C 8.1 km/h
205 07-05-2021 19:00:00 12.6 C 5.42 g/m*3 12.6 C 8.1 km/h
206 07-05-2021 19:05:00 12.6 C 5.53 g/m*3 12.6 C 4.8 km/h
207 07-05-2021 19:10:00 12.7 C 5.45 g/m*3 12.7 C 4.8 km/h
208 07-05-2021 19:15:00 12.7 C 5.45 g/m*3 12.7 C 6.4 km/h
209 07-05-2021 19:20:00 12.5 C 5.28 g/m*3 12.5 C 6.4 km/h
210 07-05-2021 19:25:00 12.2 C 5.5 g/m*3 12.2 C 3.2 km/h
211 07-05-2021 19:30:00 12 C 5.44 g/m*3 12 C 4.8 km/h
212 07-05-2021 19:35:00 12 C 5.44 g/m*3 12 C 1.6 km/h
213 07-05-2021 19:40:00 11.9 C 5.3 g/m*3 11.9 C 3.2 km/h
214 07-05-2021 19:45:00 12 C 5.54 g/m*3 12 C 1.6 km/h
215 07-05-2021 19:50:00 12 C 5.33 g/m*3 12 C 1.6 km/h
216 07-05-2021 19:55:00 11.9 C 5.3 g/m*3 11.9 C 1.6 km/h
217 07-05-2021 20:00:00 12 C 5.33 g/m*3 12 C 0 km/h
218 07-05-2021 20:05:00 12 C 5.33 g/m*3 12 C 0 km/h
219 07-05-2021 20:10:00 11.8 C 5.26 g/m*3 11.8 C 0 km/h
220 07-05-2021 20:15:00 11.8 C 6.21 g/m*3 11.8 C 0 km/h
221 07-05-2021 20:20:00 11.6 C 6.44 g/m*3 11.6 C 4.8 km/h
222 07-05-2021 20:25:00 11.3 C 6.63 g/m*3 11.3 C 4.8 km/h
223 07-05-2021 20:30:00 10.8 C 6.42 g/m*3 10.8 C 4.8 km/h
224 07-05-2021 20:35:00 10.3 C 6.32 g/m*3 9.72 C 6.4 km/h
225 07-05-2021 20:40:00 9.8 C 6.03 g/m*3 9.14 C 6.4 km/h
Sensor: Nr:Datum:Temp:Abs-Feuchte:Windchill:Wind:
Aussen-T/F 226 07-05-2021 20:45:00 9.4 C 6.06 g/m*3 8.68 C 6.4 km/h
227 07-05-2021 20:50:00 9.1 C 6.03 g/m*3 9.1 C 4.8 km/h
228 07-05-2021 20:55:00 8.8 C 6.01 g/m*3 8.8 C 4.8 km/h
229 07-05-2021 21:00:00 8.6 C 6.1 g/m*3 8.6 C 4.8 km/h
230 07-05-2021 21:05:00 8.4 C 6.11 g/m*3 8.4 C 4.8 km/h
231 07-05-2021 21:10:00 8.3 C 6.15 g/m*3 8.3 C 4.8 km/h
232 07-05-2021 21:15:00 8.2 C 6.11 g/m*3 7.29 C 6.4 km/h
233 07-05-2021 21:20:00 8.1 C 6.24 g/m*3 8.1 C 4.8 km/h
234 07-05-2021 21:25:00 8 C 6.28 g/m*3 8 C 3.2 km/h
235 07-05-2021 21:30:00 7.9 C 6.24 g/m*3 7.9 C 4.8 km/h
236 07-05-2021 21:35:00 7.8 C 6.28 g/m*3 7.8 C 4.8 km/h
237 07-05-2021 21:40:00 7.8 C 6.28 g/m*3 7.8 C 4.8 km/h
238 07-05-2021 21:45:00 7.7 C 6.32 g/m*3 7.7 C 3.2 km/h
239 07-05-2021 21:50:00 7.7 C 6.41 g/m*3 7.7 C 1.6 km/h
240 07-05-2021 21:55:00 7.6 C 6.44 g/m*3 7.6 C 1.6 km/h
241 07-05-2021 22:00:00 7.6 C 6.44 g/m*3 7.6 C 0 km/h
242 07-05-2021 22:05:00 7.5 C 6.48 g/m*3 7.5 C 0 km/h
243 07-05-2021 22:10:00 7.4 C 6.44 g/m*3 7.4 C 0 km/h
244 07-05-2021 22:15:00 7.3 C 6.4 g/m*3 7.3 C 0 km/h
245 07-05-2021 22:20:00 7.2 C 6.44 g/m*3 7.2 C 0 km/h
246 07-05-2021 22:25:00 7.1 C 6.4 g/m*3 7.1 C 0 km/h
247 07-05-2021 22:30:00 6.9 C 6.31 g/m*3 6.9 C 0 km/h
248 07-05-2021 22:35:00 6.8 C 6.27 g/m*3 6.8 C 0 km/h
249 07-05-2021 22:40:00 6.7 C 6.23 g/m*3 6.7 C 0 km/h
250 07-05-2021 22:45:00 6.5 C 6.22 g/m*3 6.5 C 0 km/h
Sensor: Nr:Datum:Temp:Abs-Feuchte:Windchill:Wind:
Aussen-T/F 251 07-05-2021 22:50:00 6.3 C 6.14 g/m*3 6.3 C 0 km/h
252 07-05-2021 22:55:00 6.2 C 6.1 g/m*3 6.2 C 0 km/h
253 07-05-2021 23:00:00 6.1 C 6.14 g/m*3 6.1 C 0 km/h
254 07-05-2021 23:05:00 6 C 6.1 g/m*3 6 C 0 km/h
255 07-05-2021 23:10:00 5.9 C 6.13 g/m*3 5.9 C 0 km/h
256 07-05-2021 23:15:00 5.8 C 6.16 g/m*3 5.8 C 0 km/h
257 07-05-2021 23:20:00 5.8 C 6.16 g/m*3 5.8 C 0 km/h
258 07-05-2021 23:25:00 5.7 C 6.12 g/m*3 5.7 C 0 km/h
259 07-05-2021 23:30:00 5.6 C 6.08 g/m*3 5.6 C 0 km/h
260 07-05-2021 23:35:00 5.5 C 6.04 g/m*3 5.5 C 0 km/h
261 07-05-2021 23:40:00 5.4 C 6 g/m*3 5.4 C 0 km/h
262 07-05-2021 23:45:00 5.2 C 5.92 g/m*3 5.2 C 0 km/h
263 07-05-2021 23:50:00 5.1 C 5.88 g/m*3 5.1 C 0 km/h
264 07-05-2021 23:55:00 4.9 C 5.81 g/m*3 4.9 C 0 km/h

Legende:
   Min
   Max


Maximal/Minimal-Werte vom 23.02.2003 - 08.05.2021

Sensor Min Max Avg
Temp
(Aussen-T/F)
-16.4 °C
20-12-2009  01:30:01
40.4 °C
25-07-2019  16:20:00
11.09 °C

Die Daten stammen von einer Davis Vantage Pro 2 Wetter-Station und werden unter Linux mit der Software wview2wettercgi und aufbereitet. Alle Angaben erfolgen ohne Gewähr für ihre Vollständigkeit oder Richtigkeit.
Kontakt: Rainer Krienke krienke@uni-koblenz.de . Meine Webseiten an der Uni Koblenz oder privat.
Version: $Revision: 0.78 $